Cloud_Cover
0 0 0 0 0 1 98 100 100 100 100 100 66 58 49 5 5 20 39 46 2 2 15 0 3 27 11 27 75 5 4 3 5 5 81 64 98 100 5 59 0 0 0 0 0 0 0 0 0
0 0 0 0 0 0 15 99 100 100 100 100 100 59 64 78 53 50 43 99 95 21 18 0 0 5 2 38 93 40 14 96 81 5 84 6 43 90 100 10 0 0 0 0 0 0 0 0 0
0 0 0 0 0 0 0 0 98 100 100 100 100 92 50 81 5 57 100 98 99 98 19 4 0 0 3 22 4 100 100 100 76 5 17 100 73 100 81 0 0 0 0 0 0 0 0 0 0
0 0 0 0 0 0 0 0 0 100 100 100 100 100 100 100 99 95 100 100 50 95 100 84 5 4 5 5 5 100 91 100 37 75 100 100 97 100 22 0 0 0 0 0 0 0 0 0 0
0 0 0 0 0 0 0 0 0 63 100 100 100 100 100 100 100 34 9 98 100 100 100 100 98 7 5 10 68 100 100 100 80 100 96 9 85 100 90 29 0 0 0 0 0 0 0 0 0
0 0 0 0 0 0 0 0 0 0 84 100 100 100 100 100 100 100 100 100 100 100 100 100 100 40 8 5 100 100 97 100 100 100 100 100 100 89 24 5 5 1 0 0 0 0 0 0 1
0 0 0 0 0 0 0 0 0 0 0 100 100 100 100 100 100 100 93 48 100 100 100 100 100 100 55 7 23 100 100 100 100 100 100 100 38 5 55 5 5 1 0 0 0 0 0 0 0
0 0 0 0 0 0 0 0 0 0 0 0 100 100 100 100 100 100 100 96 94 100 100 100 100 100 100 100 30 18 100 100 100 100 100 32 39 13 5 0 0 0 0 0 0 0 0 0 0
0 0 4 0 0 0 0 0 0 0 0 0 0 86 100 100 100 100 100 100 100 100 100 100 84 99 100 100 100 100 100 100 100 100 100 29 3 1 2 0 1 5 2 4 2 5 4 9 76
0 21 0 0 0 0 0 0 0 0 0 0 0 0 1 92 100 100 100 100 100 79 50 35 48 63 93 100 92 92 38 93 100 100 10 5 4 5 0 0 2 4 4 5 5 14 94 73 5
0 4 0 0 0 0 0 0 2 0 0 0 0 0 0 5 100 100 100 100 100 86 20 71 92 52 67 61 81 37 25 55 39 38 21 6 20 5 4 0 13 7 0 91 82 89 100 34 5
0 0 0 0 0 0 0 0 0 0 0 0 0 0 0 0 0 99 100 100 100 100 100 100 98 13 17 96 42 82 35 18 18 26 5 28 5 15 5 36 99 100 100 100 100 84 47 71 64
0 0 0 0 0 0 0 0 0 0 0 0 0 0 0 0 0 0 0 67 100 92 83 93 62 6 5 58 24 18 11 8 32 6 24 63 8 85 78 100 100 100 100 95 51 11 3 4 5
1 0 0 0 0 0 0 0 0 0 0 0 0 0 0 0 0 0 0 0 15 98 100 100 100 44 40 22 79 35 26 18 29 78 78 100 100 100 100 100 100 100 100 50 7 5 5 3 0
2 0 0 1 0 0 0 0 0 0 0 0 0 0 0 0 0 0 0 0 0 83 100 100 100 98 14 35 23 81 77 64 68 100 100 100 100 100 100 100 100 75 12 3 5 5 5 5 5
100 45 17 0 0 0 0 0 0 0 0 0 0 0 0 0 0 0 0 0 0 1 90 100 100 100 100 100 100 100 100 100 100 100 100 100 100 100 100 77 18 8 5 5 5 5 5 5 5
100 46 21 16 1 0 0 0 0 0 0 0 0 0 0 0 0 0 0 0 0 0 0 90 100 97 100 100 88 100 100 100 100 100 100 100 100 100 100 91 5 5 53 61 79 67 28 5 5
70 95 20 5 2 1 2 0 0 0 0 0 0 0 0 0 0 0 0 0 0 0 0 0 17 33 96 100 100 100 100 100 100 100 100 85 99 67 57 7 6 5 5 5 6 5 5 4 0
51 5 56 40 45 4 0 0 0 0 0 0 0 0 0 0 0 0 0 0 0 0 0 0 0 5 41 60 100 100 100 100 100 100 96 100 15 44 3 5 5 0 0 1 4 0 0 0 0
5 17 49 10 5 5 4 0 0 0 0 0 1 3 0 0 0 0 0 0 0 0 0 0 0 6 64 58 42 84 100 100 100 94 82 45 5 0 0 0 0 0 0 0 0 0 0 0 0
24 47 22 17 5 1 3 0 0 0 0 0 0 0 0 0 0 0 0 0 0 0 0 0 0 0 34 55 77 94 89 98 100 75 35 5 0 0 0 0 0 0 0 0 0 0 0 0 0
100 15 5 5 14 42 2 1 0 0 0 1 0 5 0 0 0 0 0 0 0 0 0 0 0 0 2 23 74 100 64 84 98 5 54 0 0 0 0 0 0 0 0 0 0 0 0 0 0
62 9 7 21 5 22 4 65 1 0 0 0 0 0 0 0 0 0 0 0 0 0 0 0 0 0 7 7 100 100 100 80 5 5 1 0 5 0 0 0 0 0 0 0 0 0 0 0 0
48 92 92 100 92 100 6 16 0 3 0 2 0 0 0 0 0 0 0 0 0 0 0 0 0 0 37 92 70 42 19 5 5 5 5 7 5 4 0 0 0 0 0 0 0 0 0 0 0
100 100 100 100 100 95 66 4 6 28 3 4 0 0 0 0 0 0 0 0 0 0 0 0 0 18 22 5 5 5 3 5 7 17 59 99 70 1 0 5 0 0 0 0 0 0 0 0 0
100 100 100 100 46 11 7 1 9 50 78 29 5 0 0 0 0 0 0 0 0 0 0 0 0 0 0 0 0 0 0 5 34 61 90 91 5 0 0 0 0 0 0 0 0 0 0 1 3
100 100 96 100 100 100 12 0 0 1 89 41 5 2 0 0 0 0 0 0 0 4 5 5 0 5 0 0 1 0 0 5 5 44 61 5 1 0 0 0 0 0 0 0 0 5 5 5 5
97 100 100 100 100 99 4 4 0 0 42 32 5 5 2 0 0 0 0 2 0 5 65 5 0 0 2 4 5 4 3 4 5 5 5 5 0 0 0 0 0 0 0 0 5 5 5 5 5
83 100 96 93 75 5 12 0 0 5 37 4 5 5 12 4 0 0 0 0 4 36 17 5 2 0 0 4 5 5 4 5 5 5 5 1 0 0 1 5 1 0 5 5 5 5 5 5 5
100 100 91 99 8 6 26 66 98 78 4 0 0 30 91 72 28 0 5 5 5 4 0 0 0 0 0 5 5 5 5 5 5 5 2 0 5 5 5 0 5 5 5 25 5 5 51 5 5